CAPE
2818 2937 3128 3337 2553 2223 2116 1971 1888 2231 2371 2000 2201 1850 2515 2364 2378 3108 3227 1529 2377 2495 2139 2130 2377 2122 2456 2550 2302 2294 2013 1968 1937 1832 3030 3240 3264 2753 2117 2134 2024 2332 832
2768 3340 3004 3153 2644 2502 2442 2484 1862 2381 2306 2426 2384 1997 2480 2766 2326 2070 2852 1769 2416 2299 2111 2056 1798 1456 3072 3112 2058 2822 2873 2552 1467 2787 2404 3272 2436 2166 2677 2303 2024 1648 1626
2524 2685 3040 3131 2797 2440 2269 2772 2068 2573 2387 2238 2995 2658 2741 2437 2250 2313 2087 2186 2100 2010 1860 1716 1681 2426 2846 2114 2486 2151 2099 2126 2552 2587 2266 3137 3703 2774 2326 2126 1881 1524 1399
2582 2814 3708 3264 3096 2644 2733 3156 2532 3154 2765 3229 2846 3306 2873 2519 2444 2339 2709 2712 2428 2122 1904 1716 1857 2397 2920 3060 2769 3229 2745 2392 2093 1630 1934 1876 2102 3452 2011 1501 1314 1217 1232
3899 4097 4120 4431 3994 3688 3679 3798 3289 3100 3002 3224 3307 3094 2685 2532 2278 2948 2306 2394 2668 2306 2230 2462 2597 2689 1975 1984 3291 3075 3198 2164 1703 1682 1495 1861 1652 1881 1957 1666 1456 1354 1600
3605 3644 4347 4869 4279 3937 3758 4013 3040 3398 3313 3676 3607 3367 2812 2345 1550 1131 1250 1808 2540 2790 2707 2607 3372 2860 2158 1644 1457 1410 1539 2893 3401 2818 1008 1251 2821 1848 2493 2326 1859 2195 1582
4466 4118 4108 4288 4391 4303 3799 4098 3945 3788 3914 4057 3741 3614 3320 3304 1606 906 901 1775 2110 2800 3277 2672 2456 1571 2155 2499 1808 548 551 362 384 2204 2697 2471 2559 2837 3273 2545 2039 1768 1783
4449 4318 4405 4651 4373 4408 4225 4311 4333 4146 4207 4240 4230 4162 3818 3205 302 186 378 2616 2803 2969 2928 2729 2974 3055 1441 1361 1982 2414 2181 2032 2245 1549 2032 2441 2918 2974 3262 2977 3117 2326 2017
4351 4473 4845 4986 4781 4708 4296 4591 4456 4573 4615 4444 4374 4472 3996 2971 1 0 43 2277 2373 2811 2462 2280 1906 1545 19 1 69 773 1139 1079 490 408 639 1350 1396 1076 659 2939 2003 2424 1842
4644 4725 5146 4931 5417 5153 5174 5155 5123 4324 4394 3354 3450 4055 3803 1405 0 0 0 1462 1610 982 648 613 0 0 0 0 0 0 0 0 25 397 762 914 221 1261 88 1337 1971 1884 1810
3869 4748 4703 5159 5366 5345 5490 5264 5152 4821 4254 4727 4694 4415 3865 2534 0 0 0 11 178 55 0 0 0 0 0 0 0 0 0 0 0 2 39 174 325 1170 1699 2630 2545 2040 1841
3642 4087 4234 4947 4622 4307 5639 5510 5196 5204 5179 5210 4963 3840 3111 1520 18 0 0 0 0 0 0 0 0 0 0 0 0 0 0 0 3 10 8 8 9 58 724 1815 2559 2757 2575
2468 2808 4161 4438 4638 4913 4838 5486 4743 5192 3816 4013 4068 3326 2391 1092 93 0 0 0 0 0 0 0 0 0 0 0 0 0 0 0 6 13 31 29 19 144 1268 2048 2313 2486 2398
2276 2689 2880 4332 3986 4138 3758 4240 4006 3500 3841 3741 3304 2709 1934 935 157 0 0 0 0 0 0 0 0 0 0 0 3 9 48 120 137 364 160 408 779 1183 1722 1948 1851 1986 1596
1807 2023 3423 3065 1823 1527 258 2 1603 1886 1297 2932 2761 2256 1515 715 210 39 0 0 0 0 0 0 0 0 0 0 10 10 8 16 12 18 129 588 801 815 855 1539 1741 1753 1398
1569 1375 2251 2384 1587 707 897 621 1 0 1 1 0 23 208 0 0 0 0 0 0 1 0 0 0 0 0 3 7 12 8 10 11 14 21 25 65 86 382 1174 1265 1373 1229
1499 1361 1311 1775 1730 1609 1295 914 561 0 0 0 0 0 0 0 0 0 1 0 0 0 0 0 0 0 0 3 4 16 17 23 19 22 14 20 14 10 20 150 784 905 986
1240 824 940 1377 1551 1002 892 858 652 192 0 0 0 0 0 1 1 1 1 1 0 0 0 0 0 0 0 2 9 8 12 26 13 19 22 20 14 6 18 29 23 19 26
1092 1048 1076 967 727 645 698 504 422 190 5 0 0 0 0 1 0 0 0 0 0 1 0 0 0 0 0 1 12 16 8 14 20 27 20 20 15 25 34 43 31 1 1
877 680 557 844 702 682 725 436 338 340 296 34 0 0 0 0 0 0 0 0 0 0 0 0 0 0 0 0 9 34 38 16 11 25 11 22 30 20 12 11 15 10 13
616 709 814 663 694 808 859 492 278 97 196 83 0 0 0 0 0 0 0 0 0 0 0 0 0 0 0 0 0 3 4 10 9 13 21 20 20 15 19 14 17 8 5
612 592 827 934 722 1200 624 463 374 147 0 0 0 1 0 0 0 6 16 7 6 0 2 0 0 5 0 0 0 0 10 8 1 1 9 5 1 0 1 4 24 16 12
897 704 671 816 745 706 691 685 188 89 17 0 17 2 0 14 10 62 62 34 18 17 5 2 2 15 11 5 8 1 3 5 7 15 7 19 23 5 11 20 11 9 7
994 548 621 942 1020 890 1073 544 721 6 10 20 49 124 169 63 13 85 97 60 39 24 23 9 27 47 108 122 143 2 0 0 21 49 98 45 47 94 76 73 55 56 42
796 683 776 1389 1386 949 742 411 458 94 105 136 178 225 197 136 63 95 51 43 40 45 50 63 148 118 37 0 0 0 0 0 0 0 5 55 82 181 139 149 112 124 129
995 859 1193 1890 1151 497 347 223 183 88 175 264 174 110 196 154 76 24 34 69 93 123 50 2 0 0 0 0 0 0 0 0 0 0 0 0 20 51 117 149 167 187 169
CIN
0 -1 0 0 0 0 0 0 -2 0 0 0 0 0 0 0 0 0 -7 -38 -6 0 -1 0 0 0 0 -11 -9 -11 -13 -23 -8 -24 -22 -9 -5 -6 0 -7 -17 -1 -118
0 0 0 0 0 0 0 -2 0 0 0 0 0 0 0 0 0 0 -2 -13 -2 0 0 0 0 0 0 0 -11 -1 -10 -41 -50 -8 -6 -8 -19 -11 0 -1 -3 -5 0
-2 -1 0 0 0 0 -3 -1 0 0 0 0 0 0 0 -2 0 0 0 0 0 0 0 0 0 0 0 0 -1 0 0 -1 -5 -5 -3 -3 -5 -9 0 -5 -9 -22 -13
-6 0 0 0 0 0 0 0 0 0 0 0 -1 0 0 0 0 0 0 0 0 0 0 0 0 0 0 0 0 0 0 0 0 0 0 0 -1 -2 0 -9 -18 -32 -26
0 0 0 0 0 0 0 0 -1 -1 0 0 0 -1 0 0 0 -1 0 0 0 0 0 0 0 -2 -9 -9 -5 -2 -2 0 0 0 -2 -1 -1 -6 -1 -1 -7 -3 -5
-16 -8 0 0 0 0 -5 0 -9 -1 -1 0 0 0 0 0 -3 -19 -29 -1 0 0 0 0 0 -7 -10 -25 -46 -40 -39 -5 0 0 0 -1 -2 -3 -25 -4 -3 -2 0
-4 -7 -1 0 0 0 0 0 0 0 0 0 0 0 0 0 -50 -99 -99 -22 -8 0 0 0 0 0 -31 0 -19 -146 -140 -173 -145 -12 0 0 -2 0 -3 -11 -15 -16 -1
-1 -4 -3 0 0 0 0 0 0 0 0 0 0 0 0 -5 -388 -413 -327 -18 0 0 0 0 0 0 -43 -61 -4 0 0 0 -10 -30 -10 -4 0 0 0 -1 0 -7 -15
0 0 0 -1 0 0 0 0 0 0 0 0 0 0 0 -19 0 0 -388 -13 0 0 0 0 0 -2 -41 0 -101 -9 0 0 -8 -14 -37 -3 -11 -37 -97 -4 0 0 0
0 0 0 -3 0 0 0 0 0 0 0 0 0 0 -4 -172 0 0 0 -37 -9 -40 -60 -44 0 0 0 0 0 0 0 0 -196 -23 -2 -5 -150 -30 -141 -56 0 0 0
0 0 -1 0 0 0 0 0 0 0 0 0 0 -1 0 -44 0 0 0 -44 -196 -273 0 0 0 0 0 0 0 0 0 0 0 0 -124 -91 -6 0 0 -5 0 0 0
-3 -4 -4 0 0 0 0 0 0 0 0 0 0 0 -2 -143 -127 0 0 0 0 0 0 0 0 0 0 0 0 0 0 0 0 0 0 0 0 -106 -1 0 0 0 0
-22 -8 -1 0 -1 0 0 0 0 0 0 0 0 0 -10 -166 -266 0 0 0 0 0 0 0 0 0 0 0 0 0 0 0 0 0 0 0 0 -55 0 0 0 0 0
-15 -4 0 -2 -6 -5 0 0 0 0 0 0 0 0 -13 -131 -301 0 0 0 0 0 0 0 0 0 0 0 -4 0 0 -175 -128 -68 -227 -72 0 0 0 0 0 0 0
-20 -19 0 -3 -98 -137 -247 0 -198 -54 -35 -12 0 -1 -11 -66 -145 -151 0 0 0 0 0 0 0 0 0 0 0 0 0 0 0 -3 -135 -35 -9 0 0 0 0 0 0
-8 -42 0 -3 -64 -239 -145 -171 0 0 0 0 0 -57 -181 0 0 0 0 0 0 0 0 0 0 0 0 0 0 0 0 0 0 0 -41 -8 0 -19 -8 0 0 0 0
0 -8 -4 -11 -3 -8 -57 -78 -138 0 0 0 0 0 0 0 0 0 0 0 0 0 0 0 0 0 0 0 0 0 0 0 0 0 -1 -62 -1 0 -3 -23 0 0 0
0 -16 -18 0 -2 -18 -49 -65 -71 -191 0 0 0 0 0 0 0 0 0 0 0 0 0 0 0 0 0 0 0 0 0 0 0 0 0 0 0 0 -26 -14 -21 -6 -10
0 0 0 -2 -9 -29 -75 -73 -76 -120 -95 0 0 0 0 0 0 0 0 0 0 0 0 0 0 0 0 0 -3 0 0 -1 -2 0 0 0 0 0 0 -15 -36 -2 -1
0 -3 -13 0 -1 -12 -29 -67 -58 -28 -30 -188 0 0 0 0 0 0 0 0 0 0 0 0 0 0 0 0 0 -7 -10 -1 -3 -1 -2 -3 -1 0 0 0 0 0 0
-3 0 -10 0 0 0 -5 -41 -50 -56 -31 -60 0 0 0 0 0 0 0 0 0 0 0 0 0 0 0 0 0 0 0 0 0 0 -1 0 0 0 -1 0 0 0 0
-4 -5 -1 -2 0 -7 -10 -23 -24 -48 0 0 0 0 0 0 0 0 -1 -26 -1 0 0 0 0 0 0 0 0 0 0 0 0 0 0 0 0 0 0 0 0 0 0
0 0 0 0 0 -10 -1 0 -11 -41 -19 0 -19 -12 0 -21 -48 -5 -12 -60 0 0 0 0 0 0 0 0 0 0 0 0 0 -3 -1 0 0 0 0 0 0 -1 0
0 0 0 -1 -2 -1 -3 0 -2 -13 -11 -30 -27 -27 -1 -5 -41 -1 -10 -37 0 -1 0 0 -1 -1 -8 -5 -29 -19 0 0 -28 -13 -22 -10 0 -1 0 -1 0 0 0
0 0 0 0 0 -1 0 -1 -8 -49 -37 -40 -21 0 -5 0 -12 -4 -1 0 0 0 0 -3 -23 -26 -89 0 0 0 0 0 0 0 -72 -25 -2 -2 0 -1 -3 -5 -1
0 -1 -1 -5 0 -27 -17 -13 -18 -45 -38 -12 -13 -60 -10 -13 -56 -2 -1 0 0 -12 -23 -34 0 0 0 0 0 0 0 0 0 0 0 0 -31 -7 0 -1 0 0 -1
Wind_Speed
14 12 11 11 14 12 10 11 10 9 8 7 6 6 8 9 8 6 5 4 5 6 7 5 7 5 5 4 6 7 7 5 4 4 3 2 5 6 5 5 8 7 8
13 12 13 13 12 13 11 10 13 10 9 9 9 9 9 9 6 7 7 9 9 7 8 8 7 6 9 8 7 7 6 4 4 8 7 6 5 7 7 6 6 6 8
11 14 14 14 14 13 13 10 12 11 11 12 10 7 10 7 8 8 8 9 8 9 9 8 9 9 8 9 7 7 8 8 7 5 8 5 5 4 5 4 4 8 8
11 12 11 13 13 13 12 11 12 11 11 10 7 9 11 10 9 9 9 9 9 10 9 10 10 10 10 9 10 9 9 8 8 8 8 8 7 5 5 6 7 7 8
9 8 9 10 10 11 8 9 9 9 10 12 11 12 10 9 10 11 10 10 9 10 10 10 11 11 9 7 6 10 9 8 9 9 9 9 7 7 8 7 8 8 10
12 12 9 9 10 10 9 9 9 9 10 12 11 11 10 10 5 7 7 9 8 8 8 10 11 11 12 14 12 13 12 9 10 9 11 11 9 7 5 7 8 6 8
12 12 11 11 11 10 11 11 12 13 13 12 12 12 12 11 3 7 8 9 10 10 9 9 10 11 6 10 6 12 12 13 14 13 13 13 12 10 8 7 8 8 9
12 12 12 12 12 12 12 12 11 11 11 10 11 11 10 8 8 8 6 9 10 11 11 11 10 11 6 7 9 12 13 13 12 12 14 15 14 12 10 10 10 8 6
12 12 13 13 13 13 13 12 12 10 10 11 10 11 10 7 6 2 3 8 10 10 7 8 9 10 7 9 9 13 15 15 13 13 15 16 13 12 9 5 9 8 10
11 12 12 13 13 14 13 12 11 11 11 11 12 11 7 10 8 3 5 6 7 6 6 6 8 5 7 8 6 10 12 14 14 13 14 11 12 13 13 11 11 11 10
10 12 11 12 13 13 12 11 11 12 11 11 11 8 9 11 9 8 4 4 5 5 5 5 7 10 5 3 1 9 13 12 15 14 13 12 12 12 12 10 11 12 11
8 8 9 11 12 12 13 12 12 12 12 11 10 10 8 8 10 7 5 1 2 4 5 5 5 11 8 8 8 10 11 9 10 11 11 12 11 12 8 6 7 8 9
10 11 9 10 11 12 13 12 12 12 11 11 8 9 9 7 7 9 8 7 6 4 3 4 6 9 12 12 12 13 11 8 8 9 10 11 10 11 10 8 8 11 10
11 10 11 10 10 11 12 13 13 13 11 9 11 10 9 9 9 8 8 7 10 8 6 5 4 8 5 5 8 8 4 7 7 8 7 9 9 7 6 6 6 6 4
10 10 7 4 3 4 4 6 3 6 2 7 9 9 9 9 9 7 4 7 3 2 4 3 2 4 7 6 7 7 7 7 6 7 8 8 5 5 5 5 5 5 5
9 9 7 5 4 1 3 2 11 11 7 12 8 4 5 5 13 15 12 11 5 4 5 2 2 4 6 6 7 7 6 7 7 6 5 4 5 5 6 6 5 5 4
11 9 8 5 8 6 5 5 4 3 9 8 8 8 5 11 13 14 10 5 4 5 9 2 2 3 4 4 6 5 5 4 5 6 4 4 5 5 6 6 5 5 5
14 7 9 8 7 7 6 5 4 6 7 5 4 1 7 11 10 8 6 2 5 8 11 1 2 3 2 2 4 6 6 5 6 5 4 4 3 3 5 4 3 4 4
13 10 10 9 8 3 6 7 7 8 9 9 9 4 8 8 6 3 2 7 10 5 4 2 2 1 2 2 3 3 4 5 4 4 3 3 4 3 4 4 3 2 3
14 12 8 8 6 5 7 8 9 8 8 10 10 11 10 8 7 8 8 10 9 6 4 2 2 1 1 1 3 5 4 2 3 1 2 2 3 4 4 4 4 4 4
12 12 15 10 10 9 8 9 9 8 10 11 11 12 14 11 10 11 11 10 8 6 4 2 3 1 4 3 4 4 4 5 5 4 2 3 3 3 1 2 4 4 5
12 13 12 10 10 10 10 11 9 11 8 9 9 11 21 11 10 11 9 8 8 5 2 3 3 3 2 2 2 4 4 4 5 6 6 6 5 7 6 4 1 2 1
11 12 10 10 10 7 10 9 8 11 12 9 7 10 9 9 10 9 8 9 7 6 6 5 4 4 5 2 1 0 2 4 4 4 6 7 7 5 7 6 6 5 5
14 15 11 9 9 8 8 10 8 7 8 6 6 10 13 11 11 12 10 7 7 7 7 5 5 2 4 3 6 7 9 10 8 7 10 8 8 3 7 9 10 10 7
15 13 10 9 8 9 11 10 7 8 9 9 12 14 11 11 11 10 8 6 6 7 8 7 8 12 15 11 10 10 9 9 9 10 9 11 11 12 12 9 8 10 10
14 15 6 6 9 6 8 8 9 8 9 12 5 3 8 8 7 7 9 6 6 10 11 10 11 13 11 10 10 8 5 8 8 6 6 7 8 9 10 11 14 11 11
Wind_Direction
201 197 202 187 200 212 213 192 222 240 203 226 216 218 242 241 215 221 246 286 217 252 279 247 227 240 258 239 216 246 280 318 281 286 19 136 169 232 240 223 194 213 178
199 201 198 196 200 189 219 202 192 224 219 219 224 217 224 232 223 215 215 257 213 217 235 245 257 245 224 234 243 245 273 309 302 293 291 297 243 226 252 241 266 246 256
201 202 202 197 198 193 199 219 200 198 220 219 220 228 247 241 216 230 234 242 252 250 250 260 260 258 252 269 264 247 233 227 232 260 277 277 239 224 207 218 253 256 262
209 203 204 205 204 208 205 199 206 194 207 227 223 226 242 219 223 233 243 240 254 262 265 271 270 263 257 258 256 258 250 268 263 246 253 260 240 217 209 242 222 225 248
203 215 210 200 211 205 215 196 211 219 212 205 213 226 225 232 232 220 240 260 252 260 265 264 257 253 300 288 267 263 290 259 264 252 256 275 249 205 215 227 238 256 209
200 204 210 204 209 215 198 199 201 201 213 218 215 219 216 239 235 197 229 265 251 256 278 275 264 253 236 231 236 245 254 265 262 277 277 258 264 268 253 234 245 215 245
209 209 204 202 206 208 202 200 201 203 213 208 214 218 222 230 165 181 185 236 252 256 251 259 272 278 311 298 286 252 264 256 242 259 269 268 276 269 264 251 243 244 248
216 208 198 198 204 203 201 207 210 211 215 214 215 221 225 222 137 156 175 237 246 256 262 271 268 277 9 356 308 282 271 265 246 240 237 249 259 270 259 257 253 247 250
223 219 209 197 198 200 203 201 203 207 212 215 217 218 219 153 87 79 220 241 238 236 266 296 305 302 46 18 313 294 289 286 289 280 249 238 247 257 263 273 255 243 248
231 223 218 213 201 199 201 200 200 200 208 211 210 213 202 134 142 159 250 258 258 261 273 258 238 307 79 60 335 299 286 284 293 294 299 272 256 252 223 237 244 257 244
239 231 219 217 217 205 199 197 197 203 209 209 208 196 164 163 160 166 140 235 263 286 284 293 68 62 22 0 281 279 274 305 293 288 287 277 272 259 236 222 232 232 243
317 295 249 220 222 211 207 198 200 203 208 200 202 185 188 162 143 176 167 152 76 271 294 317 348 4 328 291 270 263 265 275 275 274 271 265 264 273 287 288 255 245 248
296 285 269 245 231 232 212 206 202 203 216 212 191 206 197 186 172 145 187 189 206 242 307 347 288 277 265 269 235 252 251 254 267 262 257 258 264 269 298 281 262 259 264
294 276 267 249 242 232 222 214 214 208 206 199 208 216 198 189 179 182 198 204 238 225 211 219 248 268 265 272 306 329 320 326 307 279 271 267 272 274 264 270 262 253 249
293 296 312 318 12 305 24 350 217 358 359 226 218 210 206 196 194 141 161 194 182 100 282 227 25 10 17 359 335 338 339 345 333 339 332 328 306 294 288 282 278 263 241
276 266 235 227 224 242 287 182 73 72 29 37 47 69 58 62 119 98 84 79 69 294 233 212 44 40 22 357 336 338 345 338 329 323 332 326 337 344 330 315 307 272 262
258 273 283 227 270 210 193 196 218 79 59 70 34 43 83 130 108 106 115 133 220 280 250 139 68 46 32 353 336 348 337 315 321 316 332 348 353 342 333 340 338 316 304
252 232 264 253 215 256 241 218 231 192 184 178 119 2 114 116 107 115 123 131 201 208 259 167 80 59 45 6 326 357 10 358 355 334 347 352 351 336 346 350 342 340 338
243 236 223 232 249 256 201 246 210 178 179 185 166 176 118 95 98 110 149 250 258 223 203 218 127 44 69 312 106 345 14 4 346 358 4 12 16 3 3 7 19 50 327
234 244 282 250 224 225 210 222 222 229 198 203 188 190 160 160 185 193 212 228 247 241 166 228 106 351 93 302 288 192 181 206 130 272 62 68 26 18 32 31 31 22 29
229 229 197 224 241 202 205 205 215 239 213 200 195 185 163 183 199 203 199 211 223 226 177 230 88 230 205 211 283 314 354 4 2 17 4 101 135 82 28 3 44 37 30
227 233 186 208 230 174 192 212 207 205 199 199 190 174 165 201 211 214 206 206 188 223 193 163 244 211 59 42 329 349 335 31 13 359 359 351 11 1 350 345 236 141 105
232 231 224 191 216 181 198 222 191 192 198 203 181 163 180 194 229 253 209 194 205 196 173 196 198 214 152 183 239 173 301 20 358 355 350 335 341 28 317 335 324 340 337
232 236 234 194 195 210 208 212 184 172 197 186 202 169 192 198 206 231 228 206 185 190 179 187 219 144 97 239 34 66 39 2 332 328 349 324 314 327 330 319 322 330 302
247 250 215 190 210 203 193 180 179 206 196 207 215 187 196 192 208 217 176 207 163 195 180 91 51 51 58 46 39 28 20 351 340 329 295 300 306 322 308 308 332 329 331
232 251 199 167 194 171 178 175 178 182 220 238 203 224 221 198 170 162 170 163 145 86 80 66 58 53 43 52 33 4 354 359 358 343 310 304 308 298 309 322 324 322 324